Weather History for Charleston, SC

Change the Weather History Date:

Friday, November 30, 2012

  Actual Average Record
Temperature  
Mean Temperature 54 °F 55 °F  
Max Temperature 68 °F 66 °F 83 °F (1985)
Min Temperature 40 °F 44 °F 22 °F (1959)
Degree Days  
Heating Degree Days 11 11  
Month to date heating degree days 346 223  
Since 1 July heating degree days 404 292  
Cooling Degree Days 0 1  
Month to date cooling degree days 6 33  
Year to date cooling degree days 2460 2297  
Growing Degree Days 4 (Base 50)    
Moisture  
Dew Point 44 °F    
Average Humidity 71    
Maximum Humidity 93    
Minimum Humidity 48    
Precipitation  
Precipitation 0.00 in 0.09 in 1.59 in (1978)
Month to date precipitation 2.20 2.43  
Year to date precipitation 40.41 47.92  
Snow  
Snow 0.00 in 0.00 in - ()
Month to date snowfall 0.0  
Since 1 July snowfall 0.0 0.0  
Since 1 September snowfall 0.0 0.0  
Snow Depth 0.00 in    
Sea Level Pressure  
Sea Level Pressure 30.35 in    
Wind  
Wind Speed 3 mph (NE)    
Max Wind Speed 8 mph    
Max Gust Speed 12 mph    
Visibility 10 miles    
Events      
T = Trace of Precipitation, MM = Missing Value Source: NWS Daily Summary

Daily Weather History Graph

Daily Weather History Graph

Search for Another Location

Airport:

Trip Planner

Search our weather history database for the weather conditions in past years. The results will help you decide how hot, cold, wet, or windy it might be!

Date:

Astronomy

Nov. 30, 2012 Rise Set
Actual Time 7:04 AM EST 5:13 PM EST
Civil Twilight 6:37 AM EST 5:40 PM EST
Nautical Twilight 6:07 AM EST 6:10 PM EST
Astronomical Twilight 5:37 AM EST 6:40 PM EST
Moon 7:06 PM EST (11/30) 8:35 AM EST (11/30)
Length of Visible Light 11h 02m
Length of Day
10h 09m
Waning Gibbous, 96% of the Moon is Illuminated
Nov 30
Waning Gibbous
Dec 6
Last Quarter
Dec 13
New
Dec 20
First Quarter
Dec 28
Full

Hourly Weather History & Observations

Time (EST) Temp. Windchill Dew Point Humidity Pressure Visibility Wind Dir Wind Speed Gust Speed Precip Events Conditions
12:56 AM 43.0 °F 40.3 °F 39.9 °F 89% 30.38 in 10.0 mi NE 4.6 mph - N/A   Partly Cloudy
1:56 AM 44.1 °F 42.5 °F 39.0 °F 82% 30.38 in 10.0 mi NNE 3.5 mph - N/A   Clear
2:56 AM 41.0 °F 39.0 °F 37.9 °F 89% 30.38 in 10.0 mi North 3.5 mph - N/A   Partly Cloudy
3:56 AM 43.0 °F - 39.0 °F 86% 30.37 in 10.0 mi Calm Calm - N/A   Partly Cloudy
4:56 AM 43.0 °F - 39.0 °F 86% 30.37 in 10.0 mi Calm Calm - N/A   Partly Cloudy
5:56 AM 39.9 °F 37.8 °F 37.9 °F 93% 30.37 in 10.0 mi North 3.5 mph - N/A   Partly Cloudy
6:56 AM 42.1 °F 40.2 °F 39.0 °F 89% 30.38 in 10.0 mi NNE 3.5 mph - N/A   Partly Cloudy
7:56 AM 45.0 °F 43.5 °F 41.0 °F 86% 30.39 in 10.0 mi North 3.5 mph - N/A   Scattered Clouds
8:56 AM 52.0 °F - 45.0 °F 77% 30.40 in 10.0 mi NNE 4.6 mph - N/A   Scattered Clouds
9:56 AM 57.9 °F - 46.9 °F 67% 30.41 in 10.0 mi Calm Calm - N/A   Scattered Clouds
10:56 AM 63.0 °F - 46.0 °F 54% 30.40 in 10.0 mi NE 4.6 mph - N/A   Scattered Clouds
11:56 AM 64.9 °F - 46.0 °F 50% 30.37 in 10.0 mi Variable 4.6 mph - N/A   Scattered Clouds
12:56 PM 64.9 °F - 46.0 °F 50% 30.34 in 10.0 mi Variable 3.5 mph - N/A   Mostly Cloudy
1:56 PM 66.9 °F - 46.9 °F 49% 30.32 in 10.0 mi Variable 3.5 mph - N/A   Mostly Cloudy
2:56 PM 66.9 °F - 46.9 °F 49% 30.31 in 10.0 mi SE 4.6 mph - N/A   Mostly Cloudy
3:56 PM 64.9 °F - 48.0 °F 54% 30.31 in 10.0 mi SE 4.6 mph - N/A   Mostly Cloudy
4:56 PM 62.1 °F - 48.0 °F 60% 30.32 in 10.0 mi ESE 6.9 mph - N/A   Mostly Cloudy
5:56 PM 57.9 °F - 46.9 °F 67% 30.32 in 10.0 mi East 4.6 mph - N/A   Mostly Cloudy
6:56 PM 55.9 °F - 45.0 °F 67% 30.33 in 10.0 mi ENE 3.5 mph - N/A   Mostly Cloudy
7:56 PM 55.0 °F - 48.0 °F 77% 30.33 in 10.0 mi East 4.6 mph - N/A   Scattered Clouds
8:56 PM 51.1 °F - 46.9 °F 86% 30.34 in 10.0 mi Calm Calm - N/A   Scattered Clouds
9:56 PM 48.9 °F - 46.9 °F 93% 30.33 in 10.0 mi Calm Calm - N/A   Scattered Clouds
10:56 PM 48.9 °F - 46.9 °F 93% 30.33 in 10.0 mi ENE 5.8 mph - N/A   Partly Cloudy
11:56 PM 50.0 °F - 48.0 °F 93% 30.33 in 10.0 mi NNE 3.5 mph - N/A   Partly Cloudy